Regional Weather Roundup
Issued by NWS Upton, NY

Current Version | Previous Version | Text Only | Print | Product List | Glossary On
Versions: 1 2 3 4 5 6 7 8 9 10 11 12 13 14 15 16 17 18 19 20 21 22 23 24 25 26 27 28 29 30 31 32 33 34 35 36 37 38 39 40 41 42 43 44 45 46 47 48 49 50
000
ASUS41 KOKX 271105
RWROKX

REGIONAL WEATHER ROUNDUP
NATIONAL WEATHER SERVICE NEW YORK NY
600 AM EST THU NOV 27 2014

NOTE: "FAIR" INDICATES FEW OR NO CLOUDS BELOW 12,000 FEET WITH NO
SIGNIFICANT WEATHER AND/OR OBSTRUCTIONS TO VISIBILITY.

NYZ071-072-176-178-NJZ106-104-271200-
NEW YORK CITY METRO AREA


CITY           SKY/WX    TMP DP  RH WIND       PRES   REMARKS
CENTRAL PARK   CLOUDY    36  30  79 VRB3      29.97R
LAGUARDIA APRT CLOUDY    37  30  75 NW9       29.95R WCI  30
KENNEDY INTL   CLOUDY    37  30  75 NW15      29.96R WCI  28
NEWARK/LIBERTY CLOUDY    36  32  85 W8        29.96R WCI  30
BRNX BOT. GARD   N/A     36  32  87 NW6       29.95R WCI  31
TETERBORO      CLOUDY    36  31  82 NW3       29.95R
$$

NYZ177-179-078>081-271200-
LONG ISLAND NEW YORK

CITY           SKY/WX    TMP DP  RH WIND       PRES   REMARKS
FARMINGDALE    CLOUDY    36  29  75 N8        29.93S WCI  30
ISLIP          CLOUDY    35  31  85 NW10      29.90R WCI  27
SHIRLEY        CLOUDY    35  32  88 NW6       29.91R WCI  30
WESTHAMPTON    CLOUDY    36  32  85 W7        29.91R WCI  30
MONTAUK POINT    N/A     38  32  79 NW8       29.88R WCI  32
$$

NYZ052-065-067-271200-
HUDSON VALLEY

CITY           SKY/WX    TMP DP  RH WIND       PRES   REMARKS
WHITE PLAINS   MOCLDY    33  28  81 NW12      29.91R WCI  24
NEWBURGH       MOCLDY    28  28 100 CALM      29.94
MONTGOMERY     CLOUDY    30  28  92 CALM      29.92S FOG
POUGHKEEPSIE   PTCLDY    27  25  92 CALM      29.95R FOG
ALBANY         CLOUDY    30  27  88 N6        29.95S WCI  24
$$

NJZ001-105-106-008-010-013-015-019>022-104-271200-
NEW JERSEY

CITY           SKY/WX    TMP DP  RH WIND       PRES   REMARKS
NEWARK/LIBERTY CLOUDY    36  32  85 W8        29.96R WCI  30
TETERBORO      CLOUDY    36  31  82 NW3       29.95R
CALDWELL       CLOUDY    34  29  82 W3        29.95R
MORRISTOWN       N/A     37  32  81 NW3       29.95R
SOMERVILLE     CLOUDY    35  30  82 VRB3      29.94S
SUSSEX         CLOUDY    33  27  78 CALM      29.94R
ANDOVER          N/A     31  31 100 CALM      29.94R
TRENTON        LGT SNOW  34  29  82 N7        29.95F WCI  28
MILLVILLE      MOCLDY    33  32  96 W3        29.98R
ATLANTIC CITY  MOCLDY    34  32  92 NW5       29.96F WCI  30
WRIGHTSTOWN    MIX PCPN  35  31  87 NW7       29.94S WCI  29
TOMS RIVER     CLOUDY    36  34  93 CALM      29.96S
BELMAR         CLOUDY    36  28  75 W7        29.95R WCI  30
$$

PAZ047>061-062-071-271200-
EASTERN PENNSYLVANIA

CITY           SKY/WX    TMP DP  RH WIND       PRES   REMARKS
PHILADELPHIA   CLOUDY    36  31  82 NW6       29.99R WCI  31
ALLENTOWN      LGT SNOW  33  29  85 NW3       29.94F FOG
SCRANTON       LGT SNOW  30  26  85 W12       29.95S FOG     WCI  20
$$

CTZ002-004>006-009-010-012-RIZ004-006-007-MAZ004-011-015-271200-
SOUTHERN NEW ENGLAND
 IN CT

CITY           SKY/WX    TMP DP  RH WIND       PRES   REMARKS
BRADLEY INTL   PTCLDY    33  27  78 W6        29.88R WCI  28
HARTFORD       CLOUDY    34  29  82 SW6       29.89R WCI  29
DANBURY        CLOUDY    32  24  72 NW8       29.93R WCI  25
WTRBRY/OXFORD  MOCLDY    30  27  86 NW5       29.89R WCI  25
BRIDGEPORT     CLOUDY    35  29  78 NW8       29.92R WCI  29
MERIDEN        PTCLDY    33  27  78 NW6       29.89R WCI  28
NEW HAVEN      CLOUDY    37  29  72 NW7       29.90R WCI  32
CHESTER        CLOUDY    34  32  93 NW6       29.87R WCI  29
GROTON         CLEAR     32  31  96 NW7       29.88R WCI  26
WILLIMANTIC    CLOUDY    34  29  82 VRB7      29.87R WCI  28

 IN RI

CITY           SKY/WX    TMP DP  RH WIND       PRES   REMARKS
PROVIDENCE     PTCLDY    34  29  82 NW9       29.84R WCI  27
BLOCK ISLAND   PTCLDY    36  28  75 NW8G16    29.85R WCI  29
WESTERLY       CLEAR     32  30  92 W3        29.87R

 IN MA

CITY           SKY/WX    TMP DP  RH WIND       PRES   REMARKS
BOSTON         MOCLDY    34  31  88 NW12      29.83R WCI  25
WORCESTER      MOCLDY    29  27  92 NW12      29.81R WCI  19
WESTFIELD      MOCLDY    32  27  81 NW5       29.87R WCI  27
PROVINCETOWN   CLOUDY    43  34  70 N20G33    29.79R
NANTUCKET      CLOUDY    38  35  89 NW17G26   29.77R WCI  28
$$

ANZ330-335-338-340-345-350-353-355-271200-
COASTAL MARINE OBSERVATIONS


STATION/POSITION TIME  SKY/WX   TEMP    WIND        PRES    VSBY  WAVE
                                AIR SEA DIR/SP/G                  HT/PER
                 (UTC)          (F)     (DEG/KT/KT) (MB)    (MI)  (FT/S)
NY HARB ENTRANCE 1100            40 55  310/ 14/ 19 1014.0          5/11
4S FIRE IS       1100               52                N/A           6/11
20S FIRE ISLAND  1100            40 54  330/ 14/ 17 1012.6          7/11
23SW MTP         1100                                 N/A           8/10
HUDSON CANYON    1100            44 58  310/ 14/ 17 1012.9         11/11
EXECUTION ROCKS  1100            38 48  340/ 12/ 16   N/A
WESTERN LI SOUND 1100            37     330/ 12/ 16   N/A           1
CENTRAL LI SOUND 1000            37 50  300/ 14/ 17   N/A           2/ 3
EASTERN LI SOUND 1000            37 52  320/ 12/ 16   N/A
ROBBINS REEF     1100            37     300/ 10/ 12 1012.9
$$


>>>>>>>>>>>>>>>>>>>>>>>>>>>> KEY <<<<<<<<<<<<<<<<<<<<<<<<<<<
>                                                          <
>     SKY/WX - SKY CONDITION/PRESENT WEATHER               <
>     TMP    - TEMPERATURE IN FAHRENHEIT                   <
>     DP     - DEWPOINT IN FAHRENHEIT                      <
>     RH     - RELATIVE HUMIDITY IN PERCENT                <
>     WIND   - DIRECTION AND SPEED IN MPH                  <
>     PRES   - MEAN SEA LEVEL PRESSURE IN INCHES OF HG     <
>     WCI    - WIND CHILL INDEX                            <
>     VSB    - VISIBILITY IN MILES                         <
>     HX     - HEAT INDEX                                  <
>     TC     - TEMPERATURE IN CELSIUS                      <
>     VRB    - VARIABLE WIND DIRECTION                     <
>                                                          <
>>>>>>>>>>>>>>>>>>>>>>>>>>>> KEY <<<<<<<<<<<<<<<<<<<<<<<<<<<





USA.gov is the U.S. government's official web portal to all federal, state and local government web resources and services.